{"data":{"norad_id":54848,"intl_designator":"2022-177AE","name":"STARLINK-5432","alt_names":[],"object_type":"PAYLOAD","status":"ACTIVE","operator":null,"country":"US","launch_date":"2022-12-28","launch_site_code":"AFETR","launch_vehicle":null,"mission":null,"orbit_class":"UNKNOWN","rcs_meters":null,"size_class":null,"mass_kg":null,"dimensions":null,"purposes":["comms"],"wikipedia_slug":null,"has_3d_model":false,"image_url":null,"decayed_at":null,"tle_current":{"epoch":"2026-09-20T19:54:18.397440Z","epoch_age_seconds":64858,"freshness":"FRESH","line1":"1 54848U 22177AE  26263.82937960 -.00000274  00000+0 -44126-6 0  9998","line2":"2 54848  43.0029  99.6295 0001761 255.5722 104.4934 15.27578396206930","mean_motion":15.27578396,"eccentricity":0.0001761,"inclination_deg":43.0029,"raan_deg":99.6295,"arg_perigee_deg":255.5722,"mean_anomaly_deg":104.4934,"bstar":-4.4126e-7,"rev_number":20693,"period_min":94.266847696372,"perigee_km":481.84564327958,"apogee_km":484.26215471421,"semimajor_km":6861.1908989969,"source":"CELESTRAK","updated_at":"2026-09-21T09:00:33.137668Z"}}}